• In Uzbekistan
  • List of Countries
  • For 7 days
  • Water Temperature
  • Satellite Maps
  • Weather Map
  • Weather Widgets
  • user-avatar
    Login

    Hourly Weather Priozernyy

    Today, 20 June, Wednesday

    Time Temperature Precipitation Wind Pressure Humidity
    00:00 +5°C° 0 mm 4 mps 740 mmHg 91%
    01:00 +5°C° 0 mm 3 mps 739 mmHg 93%
    02:00 +5°C° 0.1 mm 3 mps 739 mmHg 92%
    03:00 +5°C° 0.1 mm 3 mps 738 mmHg 90%
    04:00 +7°C° 0.1 mm 3 mps 738 mmHg 89%
    05:00 +7°C° 0.2 mm 3 mps 737 mmHg 88%
    06:00 +7°C° 0.2 mm 3 mps 736 mmHg 88%
    07:00 +7°C° 0.2 mm 3 mps 736 mmHg 87%
    08:00 +8°C° 0.1 mm 3 mps 735 mmHg 85%
    09:00 +8°C° 0.1 mm 2 mps 735 mmHg 82%
    10:00 +9°C° 0.1 mm 2 mps 735 mmHg 80%
    11:00 +10°C° 0 mm 2 mps 734 mmHg 75%
    12:00 +13°C° 0 mm 2 mps 734 mmHg 70%
    13:00 +14°C° 0 mm 2 mps 734 mmHg 65%
    14:00 +15°C° 0 mm 1 mps 733 mmHg 62%
    15:00 +16°C° 0 mm 1 mps 733 mmHg 59%
    16:00 +18°C° 0 mm 1 mps 733 mmHg 57%
    17:00 +18°C° 0 mm 1 mps 733 mmHg 57%
    18:00 +18°C° 0 mm 1 mps 732 mmHg 56%
    19:00 +16°C° 0 mm 0 mps 732 mmHg 56%
    20:00 +16°C° 0 mm 1 mps 732 mmHg 61%
    21:00 +15°C° 0 mm 1 mps 732 mmHg 66%
    22:00 +14°C° 0 mm 2 mps 732 mmHg 72%
    23:00 +13°C° 0 mm 2 mps 731 mmHg 75%

    Tomorrow, 21 June, Thursday

    Time Temperature Precipitation Wind Pressure Humidity
    00:00 +13°C° 0 mm 2 mps 731 mmHg 79%
    01:00 +12°C° 0 mm 2 mps 731 mmHg 82%
    02:00 +11°C° 0 mm 3 mps 730 mmHg 80%
    03:00 +12°C° 0 mm 3 mps 730 mmHg 78%
    04:00 +13°C° 0 mm 3 mps 730 mmHg 75%
    05:00 +13°C° 0.1 mm 3 mps 730 mmHg 73%
    06:00 +14°C° 0.1 mm 3 mps 729 mmHg 70%
    07:00 +15°C° 0.1 mm 4 mps 729 mmHg 68%
    08:00 +18°C° 0 mm 4 mps 729 mmHg 65%
    09:00 +19°C° 0 mm 4 mps 729 mmHg 63%
    10:00 +20°C° 0 mm 4 mps 729 mmHg 60%
    11:00 +21°C° 0 mm 4 mps 729 mmHg 57%
    12:00 +22°C° 0 mm 4 mps 729 mmHg 53%
    13:00 +23°C° 0 mm 4 mps 729 mmHg 50%
    14:00 +25°C° 0 mm 4 mps 729 mmHg 50%
    15:00 +25°C° 0 mm 4 mps 729 mmHg 50%
    16:00 +25°C° 0 mm 5 mps 729 mmHg 50%
    17:00 +23°C° 0 mm 5 mps 729 mmHg 50%
    18:00 +23°C° 0 mm 5 mps 730 mmHg 49%
    19:00 +23°C° 0 mm 5 mps 730 mmHg 49%
    20:00 +21°C° 0 mm 4 mps 730 mmHg 54%
    21:00 +20°C° 0 mm 3 mps 730 mmHg 58%
    22:00 +18°C° 0 mm 3 mps 730 mmHg 63%
    23:00 +17°C° 0 mm 3 mps 730 mmHg 66%

    Day after tomorrow, 22 June, Friday

    Time Temperature Precipitation Wind Pressure Humidity
    00:00 +16°C° 0 mm 3 mps 730 mmHg 69%
    01:00 +14°C° 0 mm 3 mps 730 mmHg 72%
    02:00 +16°C° 0 mm 3 mps 730 mmHg 71%
    03:00 +15°C° 0 mm 4 mps 730 mmHg 69%
    04:00 +17°C° 0 mm 4 mps 730 mmHg 68%
    05:00 +17°C° 0 mm 5 mps 730 mmHg 62%
    06:00 +19°C° 0 mm 5 mps 731 mmHg 56%
    07:00 +20°C° 0 mm 6 mps 731 mmHg 51%
    08:00 +21°C° 0 mm 6 mps 731 mmHg 49%
    09:00 +22°C° 0 mm 7 mps 731 mmHg 47%
    10:00 +22°C° 0 mm 7 mps 731 mmHg 46%
    11:00 +23°C° 0 mm 7 mps 732 mmHg 45%
    12:00 +23°C° 0 mm 6 mps 732 mmHg 45%
    13:00 +23°C° 0 mm 5 mps 732 mmHg 45%
    14:00 +23°C° 0 mm 5 mps 733 mmHg 45%
    15:00 +23°C° 0 mm 5 mps 733 mmHg 45%
    16:00 +23°C° 0 mm 5 mps 733 mmHg 45%
    17:00 +23°C° 0 mm 5 mps 734 mmHg 47%
    18:00 +22°C° 0 mm 5 mps 734 mmHg 48%
    19:00 +22°C° 0 mm 5 mps 734 mmHg 50%
    20:00 +21°C° 0 mm 5 mps 735 mmHg 54%
    21:00 +19°C° 0 mm 4 mps 735 mmHg 58%
    22:00 +18°C° 0 mm 4 mps 735 mmHg 63%
    23:00 +17°C° 0 mm 4 mps 736 mmHg 66%

    23 June, Saturday

    Time Temperature Precipitation Wind Pressure Humidity
    00:00 +15°C° 0 mm 4 mps 736 mmHg 70%
    01:00 +14°C° 0 mm 4 mps 736 mmHg 74%
    02:00 +14°C° 0 mm 4 mps 737 mmHg 72%
    03:00 +15°C° 0 mm 5 mps 737 mmHg 71%
    04:00 +15°C° 0 mm 5 mps 738 mmHg 69%
    05:00 +16°C° 0 mm 5 mps 738 mmHg 65%
    06:00 +19°C° 0 mm 5 mps 739 mmHg 61%
    07:00 +20°C° 0 mm 5 mps 739 mmHg 57%
    08:00 +21°C° 0 mm 5 mps 739 mmHg 54%
    09:00 +22°C° 0 mm 5 mps 739 mmHg 51%
    10:00 +23°C° 0 mm 5 mps 740 mmHg 47%
    11:00 +23°C° 0 mm 5 mps 740 mmHg 46%
    12:00 +25°C° 0 mm 5 mps 740 mmHg 44%
    13:00 +25°C° 0 mm 4 mps 740 mmHg 43%
    14:00 +25°C° 0 mm 5 mps 740 mmHg 43%
    15:00 +25°C° 0 mm 5 mps 741 mmHg 44%
    16:00 +25°C° 0 mm 5 mps 741 mmHg 44%
    17:00 +23°C° 0 mm 5 mps 741 mmHg 45%
    18:00 +23°C° 0 mm 5 mps 741 mmHg 46%
    19:00 +22°C° 0 mm 5 mps 741 mmHg 46%
    20:00 +20°C° 0 mm 4 mps 741 mmHg 52%
    21:00 +19°C° 0 mm 4 mps 741 mmHg 57%
    22:00 +17°C° 0 mm 3 mps 741 mmHg 63%
    23:00 +16°C° 0 mm 3 mps 741 mmHg 67%

    24 June, Sunday

    Time Temperature Precipitation Wind Pressure Humidity
    00:00 +14°C° 0 mm 3 mps 742 mmHg 70%
    01:00 +12°C° 0 mm 3 mps 742 mmHg 74%
    02:00 +13°C° 0 mm 3 mps 742 mmHg 72%
    03:00 +13°C° 0 mm 3 mps 742 mmHg 70%
    04:00 +13°C° 0 mm 3 mps 742 mmHg 68%
    05:00 +14°C° 0 mm 3 mps 742 mmHg 64%
    06:00 +17°C° 0 mm 3 mps 742 mmHg 60%
    07:00 +18°C° 0 mm 3 mps 743 mmHg 57%
    08:00 +19°C° 0 mm 3 mps 743 mmHg 53%
    09:00 +20°C° 0 mm 4 mps 743 mmHg 49%
    10:00 +21°C° 0 mm 4 mps 743 mmHg 46%
    11:00 +22°C° 0 mm 4 mps 743 mmHg 43%
    12:00 +23°C° 0 mm 4 mps 743 mmHg 41%
    13:00 +23°C° 0 mm 5 mps 743 mmHg 38%
    14:00 +23°C° 0 mm 5 mps 743 mmHg 39%
    15:00 +23°C° 0 mm 5 mps 743 mmHg 40%
    16:00 +25°C° 0 mm 5 mps 743 mmHg 40%
    17:00 +23°C° 0 mm 4 mps 743 mmHg 43%
    18:00 +22°C° 0 mm 4 mps 743 mmHg 46%
    19:00 +22°C° 0 mm 4 mps 743 mmHg 49%
    20:00 +20°C° 0 mm 4 mps 744 mmHg 55%
    21:00 +19°C° 0 mm 3 mps 744 mmHg 62%
    22:00 +17°C° 0 mm 3 mps 744 mmHg 68%
    23:00 +16°C° 0 mm 3 mps 744 mmHg 70%

    25 June, Monday

    Time Temperature Precipitation Wind Pressure Humidity
    00:00 +14°C° 0 mm 3 mps 744 mmHg 73%
    01:00 +14°C° 0 mm 2 mps 744 mmHg 76%
    02:00 +14°C° 0 mm 2 mps 744 mmHg 74%
    03:00 +14°C° 0 mm 2 mps 744 mmHg 71%
    04:00 +15°C° 0 mm 2 mps 744 mmHg 69%
    05:00 +16°C° 0 mm 2 mps 744 mmHg 66%
    06:00 +17°C° 0 mm 2 mps 744 mmHg 62%
    07:00 +18°C° 0 mm 2 mps 744 mmHg 59%
    08:00 +19°C° 0 mm 3 mps 744 mmHg 56%
    09:00 +21°C° 0 mm 3 mps 744 mmHg 54%
    10:00 +22°C° 0 mm 3 mps 744 mmHg 52%
    11:00 +22°C° 0 mm 3 mps 744 mmHg 50%
    12:00 +24°C° 0 mm 3 mps 744 mmHg 49%
    13:00 +24°C° 0 mm 3 mps 744 mmHg 47%
    14:00 +24°C° 0 mm 3 mps 744 mmHg 47%
    15:00 +24°C° 0 mm 3 mps 744 mmHg 47%
    16:00 +25°C° 0 mm 3 mps 744 mmHg 46%
    17:00 +24°C° 0 mm 2 mps 744 mmHg 48%
    18:00 +24°C° 0 mm 2 mps 744 mmHg 49%
    19:00 +24°C° 0 mm 2 mps 745 mmHg 51%
    20:00 +23°C° 0 mm 2 mps 745 mmHg 55%
    21:00 +21°C° 0 mm 2 mps 745 mmHg 60%
    22:00 +19°C° 0 mm 2 mps 745 mmHg 64%
    23:00 +18°C° 0 mm 2 mps 745 mmHg 68%
    Show more